MyTimes logo

TIMES

Webb Imagery

15/03/1998
Brighton Bay Run
10km Run

(Click on competitor name to view personalised results)

Name
Race #
Category
Time
(h:mm:ss)
Avg Speed
km/hr
OAll
Place
Cat
Place
EADIE David#1438Adult Male Runner0:31:28" 03:09 " 10:00
BURNS Glen#2509Adult Male Runner0:32:02" 03:12 " 20:00
OZOLINS M#1090Adult Male Runner0:32:25" 03:15 " 30:00
STRANGIO Paul#2433Adult Male Runner0:32:46" 03:17 " 40:00
MCALEER Sean#2452Adult Male Runner0:33:41" 03:22 " 50:00
WALLACE T#584Junior Male Runner0:33:43" 03:22 " 60:00
PAPAS Amdrew#2427Adult Male Runner0:34:04" 03:24 " 70:00
SMART Paul#2437Adult Male Runner0:34:26" 03:27 " 80:00
SCOTT Andrew#2128Adult Male Runner0:34:51" 03:29 " 90:00
BOX HILL S Hasset#1032Adult Male Runner0:35:25" 03:32 " 100:00
NEWMAN Russell#2458Adult Male Runner0:35:41" 03:34 " 110:00
CRAWSHAW R#1075Adult Male Runner0:35:45" 03:34 " 120:00
WILSON Andrew#2122Adult Male Runner0:35:50" 03:35 " 130:00
KEMPSON Clive#2119Adult Male Runner0:35:51" 03:35 " 140:00
BOX HILL S Bromle#1033Adult Male Runner0:35:52" 03:35 " 150:00
MICHALOWSKI Richard#2574Adult Male Runner0:35:52" 03:35 " 160:00
STEWART Ashley#695Adult Male Runner0:36:00" 03:36 " 170:00
STAHLE Nathan#1102Junior Male Runner0:36:03" 03:36 " 180:00
MALAXOS Suzanne#2134Adult Female Runner0:36:13" 03:37 " 190:00
NICHOLSON Geoff#2101Adult Male Runner0:36:19" 03:38 " 200:00
BOX HILL T Renowd#1031Adult Male Runner0:36:28" 03:39 " 210:00
SE WATER P Darcy#1036Adult Male Runner0:36:31" 03:39 " 220:00
MARTIN Didier#1104Adult Male Runner0:36:36" 03:40 " 230:00
GROSS Gian#2442Adult Male Runner0:36:44" 03:40 " 240:00
BYRNES Paul#2567Adult Male Runner0:36:51" 03:41 " 250:00
MUSGRAVE A#1007Adult Male Runner0:36:53" 03:41 " 260:00
WALLACE A#826Adult Male Runner0:36:56" 03:42 " 270:00
ALEXANDER Andrew#2476Adult Male Runner0:37:17" 03:44 " 280:00
BOULTON Peter#2501Adult Male Runner0:37:19" 03:44 " 290:00
BRODA R#596Adult Male Runner0:37:30" 03:45 " 300:00
CLEARY Vaughan#2344Adult Male Runner0:37:33" 03:45 " 310:00
CURRY Hugh#2464Adult Male Runner0:37:36" 03:46 " 320:00
THIMM M#868Adult Male Runner0:37:51" 03:47 " 330:00
BADMAN Philip#2318Adult Male Runner0:37:54" 03:47 " 340:00
MANABE T#841Adult Male Runner0:38:03" 03:48 " 350:00
PREECE Steve#2106Adult Male Runner0:38:08" 03:49 " 360:00
STOCK Patrick#2551Adult Male Runner0:38:11" 03:49 " 370:00
REIDIE Dadid#2449Adult Male Runner0:38:19" 03:50 " 380:00
VUKOJA M#904Adult Male Runner0:38:21" 03:50 " 390:00
BUCHANAN Andrew#2456Adult Male Runner0:38:26" 03:51 " 400:00
MAGEE Erin#676Adult Male Runner0:38:30" 03:51 " 410:00
WALSH Emily#628Adult Female Runner0:38:40" 03:52 " 420:00
MCBEATH A#545Adult Female Runner0:38:46" 03:53 " 430:00
ROBINSON Geraldin#2347Adult Female Runner0:38:48" 03:53 " 440:00
CASSIN Brian#2451Adult Male Runner0:38:50" 03:53 " 450:00
CARUOTO Reno#2573Junior Male Runner0:38:52" 03:53 " 460:00
PODBOY N#869Adult Male Runner0:38:53" 03:53 " 470:00
LINDSAY Dean#621Adult Male Runner0:39:01" 03:54 " 480:00
O'NEILL P#1085Adult Male Runner0:39:03" 03:54 " 490:00
MAL Mal#1108Adult Male Runner0:39:07" 03:55 " 500:00
MANSELL P#1089Adult Male Runner0:39:11" 03:55 " 510:00
NEWPORT Stephen#2324Adult Male Runner0:39:14" 03:55 " 520:00
PROSSER Greg#2313Adult Male Runner0:39:16" 03:56 " 530:00
PORCEDDU S#526Adult Male Runner0:39:17" 03:56 " 540:00
BROWNBILL Andrew#2302Adult Male Runner0:39:20" 03:56 " 550:00
LOVELOCK Laurence#2109Adult Male Runner0:39:24" 03:56 " 560:00
CAVALLI S#637Adult Female Runner0:39:27" 03:57 " 570:00
CLANCY Rob#2514Adult Male Runner0:39:27" 03:57 " 580:00
THOMAS B#573Adult Male Runner0:39:40" 03:58 " 590:00
FIRTH G#985Adult Male Runner0:39:44" 03:58 " 600:00
WEEKS P#889Adult Male Runner0:39:45" 03:58 " 610:00
WAVISH Ryan#1139Adult Male Runner0:39:47" 03:59 " 620:00
ANDERSON G#993Adult Male Runner0:39:48" 03:59 " 630:00
KIRKBY Victoria#2115Adult Female Runner0:39:52" 03:59 " 640:00
DUNLOP Andrew#2423Adult Male Runner0:39:56" 01:00 " 650:00
ELLIS Neville#2308Adult Male Runner0:40:04" 04:00 " 660:00
ALSOPP Paul#2335Adult Male Runner0:40:08" 04:01 " 670:00
MELICE P#563Adult Male Runner0:40:12" 04:01 " 680:00
SPACKMAN M#932Adult Male Runner0:40:22" 04:02 " 690:00
MAGWOOD David#2459Adult Male Runner0:40:31" 04:03 " 700:00
MC MAHON Noel#2332Adult Male Runner0:40:32" 04:03 " 710:00
PERRETT Clint#2418Junior Male Runner0:40:33" 04:03 " 720:00
SLONIM Neil#1144Adult Male Runner0:40:42" 04:04 " 730:00
THEODOROPOULOS Bill#2583Adult Male Runner0:40:47" 04:05 " 740:00
ARUNTA1 J Mead#1030Adult Male Runner0:40:50" 04:05 " 750:00
URE Michael#1145Adult Male Runner0:40:51" 04:05 " 760:00
BURGESS A#578Adult Male Runner0:40:52" 04:05 " 770:00
CHALLICE G#1080Adult Male Runner0:40:52" 04:05 " 780:00
SAUNDERS Steve#2342Adult Male Runner0:40:53" 04:05 " 790:00
LEGG Simon#1116Adult Male Runner0:40:56" 04:06 " 800:00
HODDER Matt#2114Adult Male Runner0:41:02" 04:06 " 810:00
FABRE Sofie#679Adult Female Runner0:41:17" 04:08 " 820:00
CAMERON Stuart#2133Adult Male Runner0:41:19" 04:08 " 830:00
STAHLE Philip#2577Adult Male Runner0:41:19" 04:08 " 840:00
NELSON Peter#2552Adult Male Runner0:41:27" 04:09 " 850:00
WATKINS Barry#1435Adult Male Runner0:41:33" 04:09 " 860:00
RANSOM K#1068Adult Male Runner0:41:38" 04:10 " 870:00
QUINN A#1009Adult Male Runner0:41:41" 04:10 " 880:00
DOGGETT Peter#2411Adult Male Runner0:41:44" 04:10 " 890:00
BRICKELS R#1082Adult Male Runner0:41:46" 04:11 " 900:00
HIRST David#1148Adult Male Runner0:41:50" 04:11 " 910:00
MALE Ray#2439Adult Male Runner0:41:52" 04:11 " 920:00
ABEL John#659Adult Male Runner0:41:57" 04:12 " 930:00
CUBIT Mark#2348Adult Male Runner0:42:00" 04:12 " 940:00
KROSCHEL D#581Adult Male Runner0:42:02" 04:12 " 950:00
COVAR Petra#2314Adult Male Runner0:42:03" 04:12 " 960:00
RIOGOS A#2136Adult Male Runner0:42:05" 04:13 " 970:00
HEALY P#524Adult Male Runner0:42:07" 04:13 " 980:00
SCALA M#972Adult Male Runner0:42:08" 04:13 " 990:00
WILLIAMS J#1063Adult Male Runner0:42:08" 04:13 " 1000:00
KFSARIOS M#860Adult Male Runner0:42:08" 04:13 " 1010:00
VEAR Gabriell#2585Adult Female Runner0:42:09" 04:13 " 1020:00
TELEKI S#513Adult Male Runner0:42:11" 04:13 " 1030:00
TITTENSOR Geoff#2105Adult Male Runner0:42:14" 04:13 " 1040:00
RICHARDS Noel#2426Adult Male Runner0:42:17" 04:14 " 1050:00
MILLER A#867Adult Male Runner0:42:18" 04:14 " 1060:00
DOERR R#548Adult Male Runner0:42:22" 04:14 " 1070:00
WATERS Mark#1105Adult Male Runner0:42:39" 04:16 " 1080:00
MORCOMBE G#1067Adult Male Runner0:42:42" 04:16 " 1090:00
SPACKMAN R#933Adult Male Runner0:42:48" 04:17 " 1100:00
SE WATER I Dockea#1035Adult Male Runner0:42:49" 04:17 " 1110:00
BREWER S#931Adult Male Runner0:42:50" 04:17 " 1120:00
SPTZAGALA J#1094Adult Male Runner0:42:52" 04:17 " 1130:00
WARD Daisy#2412Adult Female Runner0:42:55" 04:18 " 1140:00
ARUNTA1 S Besley#1029Adult Male Runner0:42:56" 04:18 " 1150:00
LOVELESS R#859Adult Male Runner0:42:59" 04:18 " 1160:00
JELLEFF Michelle#2103Adult Female Runner0:43:04" 04:18 " 1170:00
OSHMAN Harry#2143Adult Male Runner0:43:07" 04:19 " 1180:00
BRISTOW Antony#2346Junior Male Runner0:43:08" 04:19 " 1190:00
BIRD G#530Adult Male Runner0:43:09" 04:19 " 1200:00
SILVERWOOD Peter#2455Adult Male Runner0:43:16" 04:20 " 1210:00
HALL Jeremy#2474Adult Male Runner0:43:17" 04:20 " 1220:00
RAMSAY T#645Adult Female Runner0:43:19" 04:20 " 1230:00
WALLACE T#583Adult Female Runner0:43:22" 04:20 " 1240:00
KNOWLES T#943Junior Male Runner0:43:23" 04:20 " 1250:00
FRANCU D#1137Adult Male Runner0:43:28" 04:21 " 1260:00
VILLANTI Maria#2487Adult Female Runner0:43:31" 04:21 " 1270:00
HORROBIN Dale#2300Adult Male Runner0:43:31" 04:21 " 1280:00
POLLARD Garry#2453Adult Male Runner0:43:32" 04:21 " 1290:00
FITCHER Garry#2440Adult Male Runner0:43:33" 04:21 " 1300:00
BACKHOUSE S#903Adult Male Runner0:43:36" 04:22 " 1310:00
HARWOOD Scott#1427Adult Male Runner0:43:39" 04:22 " 1320:00
KENNEDY Melanie#2334Adult Female Runner0:43:43" 04:22 " 1330:00
MACKENZIE Mark#2447Adult Male Runner0:43:44" 04:22 " 1340:00
O'CONNELL J#541Adult Female Runner0:43:45" 04:22 " 1350:00
COOKE David#640Adult Male Runner0:43:46" 04:23 " 1360:00
MC ARHUR John#2321Adult Male Runner0:43:49" 04:23 " 1370:00
TOY J#930Adult Male Runner0:43:50" 04:23 " 1380:00
KORFIATIS Chris#2419Adult Male Runner0:43:51" 04:23 " 1390:00
WILLIAMS R#1008Adult Male Runner0:44:01" 04:24 " 1400:00
QUINN D#1010Adult Male Runner0:44:03" 04:24 " 1410:00
HILLMACHER Martin#2141Adult Male Runner0:44:05" 04:25 " 1420:00
BAKER'S DELIGHT B Lord#1016Adult Male Runner0:44:06" 04:25 " 1430:00
KAAMEYER Judy#2485Adult Female Runner0:44:07" 04:25 " 1440:00
KRISTA Frank#2107Adult Male Runner0:44:10" 04:25 " 1450:00
MULLER Paul#616Adult Male Runner0:44:11" 04:25 " 1460:00
ROBERTS Ian#1103Adult Male Runner0:44:12" 04:25 " 1470:00
MARSH T#843Adult Male Runner0:44:15" 04:26 " 1480:00
LAGUARDA Fabio#1412Adult Male Runner0:44:16" 04:26 " 1490:00
WATTS P#978Adult Male Runner0:44:17" 04:26 " 1500:00
ABLETT Scott#2326Adult Male Runner0:44:18" 04:26 " 1510:00
AZZOPARDI A#905Adult Male Runner0:44:25" 04:26 " 1520:00
JUGGINS D#604Adult Male Runner0:44:26" 04:27 " 1530:00
GORE Peter#2430Adult Male Runner0:44:27" 04:27 " 1540:00
ABBOTT Trevor#2466Adult Male Runner0:44:27" 04:27 " 1550:00
RUSSELL J#1006Adult Male Runner0:44:31" 04:27 " 1560:00
FRASER Glenys#2137Adult Female Runner0:44:32" 04:27 " 1570:00
KIRKBRIDE Aaron#2428Adult Male Runner0:44:34" 04:27 " 1580:00
BAKER'S DELIGHT L Blake#1015Adult Male Runner0:44:35" 04:28 " 1590:00
PROVOFOOT G#836Adult Male Runner0:44:36" 04:28 " 1600:00
BULICH B#871Adult Female Runner0:44:37" 04:28 " 1610:00
PALMER I#999Adult Male Runner0:44:40" 04:28 " 1620:00
MURPHY Paul#641Adult Male Runner0:44:41" 04:28 " 1630:00
PORTEOUS Andrew#1425Adult Male Runner0:44:43" 04:28 " 1640:00
PENNY Mark#1132Adult Male Runner0:44:44" 04:28 " 1650:00
MACAULAY R#556Adult Male Runner0:44:48" 04:29 " 1660:00
ARUNTA1 J Duncan#1028Adult Male Runner0:44:50" 04:29 " 1670:00
CONDON R#887Adult Male Runner0:44:53" 04:29 " 1680:00
DURKIN Stephen#2468Adult Male Runner0:44:53" 04:29 " 1690:00
SULLIVAN M#838Adult Male Runner0:44:56" 04:30 " 1700:00
SCHOFIELD Peter#1140Adult Male Runner0:45:02" 04:30 " 1710:00
MILLER Elizabet#671Adult Female Runner0:45:05" 04:31 " 1720:00
EDWARDS Antony#1044Adult Male Runner0:45:05" 04:31 " 1730:00
VERHAGEN H#551Adult Male Runner0:45:07" 04:31 " 1740:00
REID Paul#2323Adult Male Runner0:45:08" 04:31 " 1750:00
JOHNSON K#805Adult Male Runner0:45:08" 04:31 " 1760:00
CHORLEY Nancy#2560Adult Female Runner0:45:15" 04:32 " 1770:00
FLANAGAN W#1052Adult Male Runner0:45:16" 04:32 " 1780:00
FAIRLAM Penny#614Adult Female Runner0:45:19" 04:32 " 1790:00
HAYTER D#540Adult Male Runner0:45:22" 04:32 " 1800:00
KNEZEVIC D#1072Adult Male Runner0:45:24" 04:32 " 1810:00
SE WATER D Capell#1034Adult Male Runner0:45:24" 04:32 " 1820:00
NADLER Peter#2463Adult Male Runner0:45:28" 04:33 " 1830:00
CUDMORE Dan#2108Adult Male Runner0:45:30" 04:33 " 1840:00
COULL David#2475Adult Male Runner0:45:32" 04:33 " 1850:00
ROSS Andrew#2434Adult Male Runner0:45:38" 04:34 " 1860:00
CRAIG Ian#620Adult Male Runner0:45:39" 04:34 " 1870:00
SMITH Bruce#2424Adult Male Runner0:45:39" 04:34 " 1880:00
HOFER A#1003Adult Male Runner0:45:42" 04:34 " 1890:00
WILSON L#1071Adult Female Runner0:45:43" 04:34 " 1900:00
BEGIC David#2596Adult Male Runner0:45:45" 04:34 " 1910:00
KIRWOOD J#576Adult Female Runner0:45:45" 04:34 " 1920:00
FAVIER J#864Adult Male Runner0:45:46" 04:35 " 1930:00
SHORT Andrew#2591Adult Male Runner0:45:49" 04:35 " 1940:00
JAQUE C#834Adult Male Runner0:45:52" 04:35 " 1950:00
PULLING M#1087Adult Male Runner0:45:53" 04:35 " 1960:00
LYNH P#900Adult Male Runner0:45:54" 04:35 " 1970:00
HILLS Shane#2438Adult Male Runner0:45:55" 04:36 " 1980:00
GULLIFER Tony#2319Adult Male Runner0:45:56" 04:36 " 1990:00
GLICATA Tony#1411Adult Male Runner0:45:58" 04:36 " 2000:00
SWANN D#880Adult Female Runner0:46:00" 04:36 " 2010:00
EDWARDS Mark#2135Adult Male Runner0:46:07" 04:37 " 2020:00
COCKS Greg#1434Adult Male Runner0:46:10" 04:37 " 2030:00
RAHN Brendan#2110Adult Male Runner0:46:10" 04:37 " 2040:00
MARTIN Travis#2588Adult Male Runner0:46:15" 04:38 " 2050:00
WILSON W#842Adult Male Runner0:46:16" 04:38 " 2060:00
BRADSHAW J#514Adult Female Runner0:46:19" 04:38 " 2070:00
BOURGUIGNON R#546Adult Female Runner0:46:24" 04:38 " 2080:00
ELEFANTE Andrew#2443Adult Male Runner0:46:27" 04:39 " 2090:00
HILL Kerri#2436Adult Female Runner0:46:29" 04:39 " 2100:00
MCCANN Sandy#2410Adult Female Runner0:46:33" 04:39 " 2110:00
LARDNER Jimmy#2415Adult Male Runner0:46:36" 04:40 " 2120:00
COLEMAN Ron#2484Adult Male Runner0:46:36" 04:40 " 2130:00
DIGBY C#830Adult Male Runner0:46:36" 04:40 " 2140:00
ALEVIZOS Jim#2421Adult Male Runner0:46:37" 04:40 " 2150:00
CHAIN GANG M Weate#1013Adult Male Runner0:46:37" 04:40 " 2160:00
SUSANS G#577Adult Male Runner0:46:43" 04:40 " 2170:00
CHAIN GANG N Everar#1012Adult Male Runner0:46:47" 04:41 " 2180:00
JOHNSON P#811Adult Female Runner0:46:47" 04:41 " 2190:00
CHIPPERFIELD Kelly#2337Junior Male Runner0:46:49" 04:41 " 2200:00
MCGILLIOT J#602Adult Male Runner0:46:50" 04:41 " 2210:00
ANDERSON Alan#2557Adult Male Runner0:46:50" 04:41 " 2220:00
BAKER'S DELIGHT G Hopk#1020Adult Male Runner0:46:55" 04:41 " 2230:00
O'CONNELL S#730Junior Female Runner0:47:01" 04:42 " 2240:00
GILLOW Ray#2111Adult Male Runner0:47:02" 04:42 " 2250:00
HARRIS Sue#2425Adult Female Runner0:47:09" 04:43 " 2260:00
FLANDERS Ian#669Adult Male Runner0:47:10" 04:43 " 2270:00
PATNIZ Philip#2336Adult Male Runner0:47:11" 04:43 " 2280:00
MACKAY Lindsay#2329Junior Female Runner0:47:13" 04:43 " 2290:00
YARDLEY C#537Adult Male Runner0:47:14" 04:43 " 2300:00
JUDE Anthony#2322Adult Male Runner0:47:27" 04:45 " 2310:00
SMITH M#812Adult Male Runner0:47:30" 04:45 " 2320:00
MOORE Louise#623Adult Female Runner0:47:32" 04:45 " 2330:00
SARGENT Greg#2112Adult Male Runner0:47:32" 04:45 " 2340:00
KING J#517Adult Male Runner0:47:33" 04:45 " 2350:00
MC CORMICK Michael#1107Adult Male Runner0:47:34" 04:45 " 2360:00
MAGINN P#601Adult Male Runner0:47:36" 04:46 " 2370:00
BUGENT P#1001Adult Male Runner0:47:39" 04:46 " 2380:00
CORNELL W#1002Adult Male Runner0:47:40" 04:46 " 2390:00
RANSOM R#953Adult Male Runner0:47:41" 04:46 " 2400:00
CAVANAGH Rob#2320Adult Male Runner0:47:42" 04:46 " 2410:00
SPANGARO R#906Adult Female Runner0:47:44" 04:46 " 2420:00
CHAMBERLAIN Sean#2589Adult Male Runner0:47:46" 04:47 " 2430:00
IRVING James#2460Adult Male Runner0:47:48" 04:47 " 2440:00
BROWN Hollie#1023Adult Male Runner0:47:49" 04:47 " 2450:00
SCIACA D#986Adult Male Runner0:47:54" 04:47 " 2460:00
ARITA Hank#2431Adult Male Runner0:47:57" 04:48 " 2470:00
PORTUS Tim#2311Adult Male Runner0:48:00" 04:48 " 2480:00
ARUNTA2 K Maxwel#1027Adult Male Runner0:48:00" 04:48 " 2490:00
DAWSON I#1079Adult Male Runner0:48:01" 04:48 " 2500:00
BAKER'S DELIGHT R Gill#1014Adult Male Runner0:48:03" 04:48 " 2510:00
PRICE Kat#2303Adult Male Runner0:48:05" 04:49 " 2520:00
SCHOLZ S#603Adult Male Runner0:48:06" 04:49 " 2530:00
MAHER Bernard#2317Adult Male Runner0:48:07" 04:49 " 2540:00
REED Mark#2413Adult Male Runner0:48:09" 04:49 " 2550:00
DAVIES K#831Adult Male Runner0:48:10" 04:49 " 2560:00
MCCARTHY A#832Adult Male Runner0:48:11" 04:49 " 2570:00
HAPPELL Dan#2129Adult Male Runner0:48:17" 04:50 " 2580:00
CHALK T#1064Adult Female Runner0:48:20" 04:50 " 2590:00
PETERS Rod#1119Adult Male Runner0:48:22" 04:50 " 2600:00
THOMAS D#863Adult Male Runner0:48:24" 04:50 " 2610:00
MCGRATH B#599Adult Male Runner0:48:25" 04:50 " 2620:00
EASTON Neil#1120Adult Male Runner0:48:26" 04:51 " 2630:00
MARTIN P#810Adult Female Runner0:48:27" 04:51 " 2640:00
SISSOH A#595Adult Male Runner0:48:28" 04:51 " 2650:00
SMITH Mitchell#2309Adult Male Runner0:48:30" 04:51 " 2660:00
VRYMOET A#1091Adult Female Runner0:48:32" 04:51 " 2670:00
HAMILTON D#910Junior Male Runner0:48:34" 04:51 " 2680:00
NOWLAN D#942Adult Male Runner0:48:34" 04:51 " 2690:00
MURPHY Stephen#2435Adult Male Runner0:48:37" 04:52 " 2700:00
WOODHEAD S#1005Adult Male Runner0:48:40" 04:52 " 2710:00
CARAVIAS P#525Adult Male Runner0:48:41" 04:52 " 2720:00
MAUFF D#597Adult Male Runner0:48:42" 04:52 " 2730:00
LOWER R#833Adult Male Runner0:48:48" 04:53 " 2740:00
BYRON S#928Adult Female Runner0:48:48" 04:53 " 2750:00
SE WATER I Stent#1037Adult Male Runner0:48:48" 04:53 " 2760:00
SHOOBRIDGE James#2516Adult Male Runner0:48:50" 04:53 " 2770:00
WALSH B#921Adult Male Runner0:48:51" 04:53 " 2780:00
MUIR C#502Adult Female Runner0:48:57" 04:54 " 2790:00
BAKER Rod#668Adult Male Runner0:48:57" 04:54 " 2800:00
HORSNELL G#912Adult Male Runner0:48:58" 04:54 " 2810:00
KOKOVAS G#987Adult Male Runner0:49:05" 04:54 " 2820:00
PURCELL LAU#951Adult Male Runner0:49:08" 04:55 " 2830:00
JORSS Nick#2584Adult Male Runner0:49:10" 04:55 " 2840:00
SCOTT Fiona#1430Adult Female Runner0:49:18" 04:56 " 2850:00
ARUNTA2 P Elliot#1026Adult Male Runner0:49:19" 04:56 " 2860:00
HORNIBROOK Jayson#633Junior Male Runner0:49:21" 04:56 " 2870:00
BROOKS Mal#2349Adult Male Runner0:49:23" 04:56 " 2880:00
TALBOT Richard#2315Adult Male Runner0:49:25" 04:56 " 2890:00
KATSABID G#506Adult Male Runner0:49:26" 04:57 " 2900:00
MORISHIGI Hiro#1143Adult Male Runner0:49:27" 04:57 " 2910:00
BRIEN Glenn#2330Adult Male Runner0:49:28" 04:57 " 2920:00
TULLY W#589Adult Female Runner0:49:30" 04:57 " 2930:00
BOYLE M#590Adult Female Runner0:49:31" 04:57 " 2940:00
STERN Harvey#2138Adult Male Runner0:49:31" 04:57 " 2950:00
RATTRAY K#975Adult Male Runner0:49:36" 04:58 " 2960:00
ELLIS AND#939Adult Male Runner0:49:41" 04:58 " 2970:00
THOMSON P#940Adult Male Runner0:49:42" 04:58 " 2980:00
RICE E#802Adult Female Runner0:49:45" 04:58 " 2990:00
TUNCZYNSKA M#510Adult Female Runner0:49:46" 04:59 " 3000:00
JOHNS C#895Adult Male Runner0:49:52" 04:59 " 3010:00
GRAHAM T#936Adult Male Runner0:49:54" 04:59 " 3020:00
BAKER'S DELIGHT P Colm#1017Adult Male Runner0:50:00" 05:00 " 3030:00
DAVY Hedley#642Adult Male Runner0:50:03" 05:00 " 3040:00
SWINGLER T#948Adult Male Runner0:50:10" 05:01 " 3050:00
HAMILTON L#909Adult Female Runner0:50:17" 05:02 " 3060:00
PAGE A#934Adult Male Runner0:50:26" 05:03 " 3070:00
HODGSKIN Jane#2130Junior Female Runner0:50:29" 05:03 " 3080:00
BLEWETT William#1439Adult Male Runner0:50:37" 05:04 " 3090:00
WILLING Jacquely#678Adult Female Runner0:50:42" 05:04 " 3100:00
BRENNAN Diana#566Adult Female Runner0:50:45" 05:04 " 3110:00
BEDFORD M#847Adult Male Runner0:50:47" 05:05 " 3120:00
KERFORD D#1099Adult Male Runner0:50:53" 05:05 " 3130:00
KERFORD B#873Adult Male Runner0:50:53" 05:05 " 3140:00
DODSON David#2132Adult Male Runner0:50:54" 05:05 " 3150:00
RATTRAY D#1004Adult Female Runner0:50:56" 05:06 " 3160:00
BROWN Quinn#1134Adult Male Runner0:50:57" 05:06 " 3170:00
LOMIAS Keith#1133Adult Male Runner0:50:57" 05:06 " 3180:00
CLARK K#835Adult Male Runner0:50:57" 05:06 " 3190:00
HODSON Greg#2582Adult Male Runner0:50:57" 05:06 " 3200:00
BUDGE D#1084Adult Male Runner0:50:58" 05:06 " 3210:00
ZAPARAS Paul#2568Adult Male Runner0:51:00" 05:06 " 3220:00
HUDSON Rob#2325Adult Male Runner0:51:01" 05:06 " 3230:00
LARDNER J#1066Adult Female Runner0:51:07" 05:07 " 3240:00
OCKWELL David#2500Adult Male Runner0:51:11" 05:07 " 3250:00
GUERTS Andrew#2465Adult Male Runner0:51:14" 05:07 " 3260:00
KNOX Jennifer#2148Adult Female Runner0:51:19" 05:08 " 3270:00
SLATTERY B#507Adult Male Runner0:51:19" 05:08 " 3280:00
MC GRATH Austin#2576Adult Male Runner0:51:29" 05:09 " 3290:00
MACKAY Ian#2331Adult Male Runner0:51:38" 05:10 " 3300:00
MCKINNON Maris#2340Adult Male Runner0:51:38" 05:10 " 3310:00
AMERY Paul#2550Adult Male Runner0:51:39" 05:10 " 3320:00
FRANKY Peter#2131Adult Male Runner0:51:41" 05:10 " 3330:00
PEMBERTON Richard#2301Adult Male Runner0:51:42" 05:10 " 3340:00
POLSA Kristina#2140Adult Male Runner0:51:45" 05:10 " 3350:00
MCPHEE A#515Adult Male Runner0:51:46" 05:11 " 3360:00
HOLLINGSWORTH Neil#1045Adult Male Runner0:51:49" 05:11 " 3370:00
LOWRY K#1083Adult Female Runner0:51:50" 05:11 " 3380:00
LAZAREVIC M#866Adult Female Runner0:51:51" 05:11 " 3390:00
MCBRIDGE D#865Adult Male Runner0:51:52" 05:11 " 3400:00
TERRY Caroline#2506Adult Female Runner0:51:52" 05:11 " 3410:00
BEZAS G#536Adult Male Runner0:51:52" 05:11 " 3420:00
MCCAFFREY John#1043Adult Male Runner0:51:53" 05:11 " 3430:00
ANDERSON G#803Adult Female Runner0:51:55" 05:12 " 3440:00
MARSH L#886Adult Male Runner0:52:01" 05:12 " 3450:00
BRADLEY C#853Adult Male Runner0:52:05" 05:13 " 3460:00
LIVINGSTONE Tina#1446Adult Female Runner0:52:05" 05:13 " 3470:00
HENDRICK P#964Adult Male Runner0:52:06" 05:13 " 3480:00
ARITA Yoshiko#2432Adult Male Runner0:52:08" 05:13 " 3490:00
SINCLAIR J#967Adult Male Runner0:52:20" 05:14 " 3500:00
BELL ANN#533Adult Female Runner0:52:26" 05:15 " 3510:00
KOUTSOGIORGOS K#1076Adult Female Runner0:52:32" 05:15 " 3520:00
LOVEDAY B#901Adult Male Runner0:52:37" 05:16 " 3530:00
BALLANTYNE Peter#647Adult Male Runner0:52:38" 05:16 " 3540:00
SHANNON Gill#683Adult Female Runner0:52:40" 05:16 " 3550:00
KARAMITOS J#591Adult Male Runner0:52:49" 05:17 " 3560:00
BRENNAN Kohn#2441Adult Male Runner0:52:50" 05:17 " 3570:00
GILLIGAN J#946Adult Female Runner0:52:56" 05:18 " 3580:00
ARUNTA2 C Stuart#1025Adult Male Runner0:52:57" 05:18 " 3590:00
LEE S#543Junior Male Runner0:52:59" 05:18 " 3600:00
UNWIN Scott#1046Adult Male Runner0:53:00" 05:18 " 3610:00
MORREY Ben#1048Adult Male Runner0:53:01" 05:18 " 3620:00
SANMISSO P#815Adult Male Runner0:53:04" 05:18 " 3630:00
BECROFT John#619Adult Male Runner0:53:13" 05:19 " 3640:00
WATKINS Barb#2503Adult Female Runner0:53:19" 05:20 " 3650:00
CONLON Michael#2505Adult Male Runner0:53:21" 05:20 " 3660:00
D'SOUZA Nigel#2104Adult Male Runner0:53:27" 05:21 " 3670:00
FEATHERBY M#958Adult Male Runner0:53:28" 05:21 " 3680:00
ANDERSON Jenette#2558Adult Female Runner0:53:29" 05:21 " 3690:00
MALONE S#821Adult Female Runner0:53:33" 05:21 " 3700:00
DI BENEDETTO S#844Adult Male Runner0:53:35" 05:21 " 3710:00
HEALEY Rod#2328Adult Male Runner0:53:35" 05:21 " 3720:00
CONSTABLE Susan#1101Adult Female Runner0:53:36" 05:22 " 3730:00
MCPHERSON Ian#2422Adult Male Runner0:53:38" 05:22 " 3740:00
CLARKE Fred#1100Adult Male Runner0:53:38" 05:22 " 3750:00
MCKEOWN Colin#2581Adult Male Runner0:53:40" 05:22 " 3760:00
HENDERSON Elisa#1421Adult Male Runner0:53:42" 05:22 " 3770:00
KESKERIDES G#588Adult Male Runner0:53:43" 05:22 " 3780:00
HAWKINS S#947Adult Male Runner0:53:48" 05:23 " 3790:00
WALSH Darrell#2417Adult Male Runner0:53:57" 05:24 " 3800:00
BURT Jason#2144Adult Male Runner0:54:03" 05:24 " 3810:00
LANDES J#851Adult Male Runner0:54:07" 05:25 " 3820:00
MELICK J#562Adult Male Runner0:54:08" 05:25 " 3830:00
PURSSEY Colin#2345Adult Male Runner0:54:11" 05:25 " 3840:00
AGUITON Bruno#2461Adult Male Runner0:54:31" 05:27 " 3850:00
GOWERS Inez#609Adult Female Runner0:54:31" 05:27 " 3860:00
DAVID E#820Adult Female Runner0:54:32" 05:27 " 3870:00
MUIR Jill#2429Adult Female Runner0:54:39" 05:28 " 3880:00
FINCHAM C#819Adult Male Runner0:54:41" 05:28 " 3890:00
BOEK Melanie#2316Adult Female Runner0:54:44" 05:28 " 3900:00
NEILL Melissa#2508Adult Female Runner0:54:46" 05:29 " 3910:00
CLARKE Sterwart#650Adult Male Runner0:54:47" 05:29 " 3920:00
TERRY Black#2553Adult Male Runner0:55:00" 05:30 " 3930:00
SPILLING B#529Adult Male Runner0:55:03" 05:30 " 3940:00
SIMMONS R#977Adult Male Runner0:55:04" 05:30 " 3950:00
MCCLENE Andrew#2341Adult Male Runner0:55:05" 05:31 " 3960:00
CHAIN GANG J Smith#1011Adult Female Runner0:55:14" 05:31 " 3970:00
GILLIGAN R#945Adult Male Runner0:55:16" 05:32 " 3980:00
TAYLOR Garry#1111Adult Male Runner0:55:21" 05:32 " 3990:00
STONEY Robert#2120Adult Male Runner0:55:22" 05:32 " 4000:00
MCKENZIE Gloria#2454Adult Female Runner0:55:30" 05:33 " 4010:00
DENVIR G#960Adult Female Runner0:55:33" 05:33 " 4020:00
ELCOAT D#567Adult Female Runner0:55:44" 05:34 " 4030:00
BEGG Bill#2593Adult Male Runner0:55:45" 05:34 " 4040:00
MAY J#813Adult Female Runner0:55:51" 05:35 " 4050:00
LAWLESS Tom#2480Adult Male Runner0:55:51" 05:35 " 4060:00
CUFF E#1093Adult Female Runner0:55:52" 05:35 " 4070:00
HUNT Karen#627Adult Male Runner0:55:53" 05:35 " 4080:00
LOPES Rachel#2312Adult Female Runner0:55:53" 05:35 " 4090:00
LEES-AMON K#807Adult Female Runner0:55:59" 05:36 " 4100:00
CARAVIAS E#592Adult Male Runner0:55:59" 05:36 " 4110:00
HAMILTON B#911Adult Female Runner0:55:59" 05:36 " 4120:00
NICHOLSON Christin#2486Adult Female Runner0:56:00" 05:36 " 4130:00
BARNS Joanne#1420Adult Female Runner0:56:02" 05:36 " 4140:00
KELLY Liz#2580Adult Female Runner0:56:07" 05:37 " 4150:00
MCGLAULIN Bill#1113Adult Male Runner0:56:17" 05:38 " 4160:00
JOHNS Michelle#2343Adult Female Runner0:56:27" 05:39 " 4170:00
WILSON Charlott#2146Adult Female Runner0:56:28" 05:39 " 4180:00
LOPEZ Veronica#2416Adult Female Runner0:56:34" 05:39 " 4190:00
CURREY Carole#677Adult Female Runner0:57:15" 05:43 " 4200:00
BRANT Dion#1437Adult Male Runner0:57:17" 05:44 " 4210:00
BULL Leanne#2338Adult Male Runner0:57:34" 05:45 " 4220:00
KALPOKAS Mario#2127Adult Male Runner0:57:35" 05:46 " 4230:00
BRADSHAW Robert#2478Adult Male Runner0:57:35" 05:46 " 4240:00
KALPOKAS Karen#2126Adult Female Runner0:57:36" 05:46 " 4250:00
BOWYER A#1077Adult Female Runner0:57:42" 05:46 " 4260:00
BESLEY Avril#646Adult Female Runner0:57:45" 05:47 " 4270:00
JENKINS Tina#2562Adult Male Runner0:57:46" 05:47 " 4280:00
MARRINER Sam#2121Adult Female Runner0:57:47" 05:47 " 4290:00
SACKS R#1070Adult Female Runner0:57:49" 05:47 " 4300:00
SACKS S#1069Adult Male Runner0:57:50" 05:47 " 4310:00
CHIPPERFIELD Kelly#2327Junior Female Runner0:57:51" 05:47 " 4320:00
WATSON Jane#2124Adult Male Runner0:57:54" 05:47 " 4330:00
GIANNESSI Paolo#2123Adult Male Runner0:57:54" 05:47 " 4340:00
EDWARDS B#981Adult Male Runner0:57:58" 05:48 " 4350:00
LUCAS M#920Adult Male Runner0:58:06" 05:49 " 4360:00
DAVIES Lisa#2142Adult Male Runner0:58:11" 05:49 " 4370:00
SIMMS N#809Adult Female Runner0:58:17" 05:50 " 4380:00
WOODS Y#582Adult Female Runner0:58:33" 05:51 " 4390:00
GULIKERS L#918Adult Female Runner0:58:57" 05:54 " 4400:00
WILLEY K#968Adult Male Runner0:58:58" 05:54 " 4410:00
SIMPFENDORFER Matt#1047Adult Male Runner0:59:05" 05:55 " 4420:00
SKALAMERA T#528Adult Female Runner0:59:12" 05:55 " 4430:00
OSHEA Jill#2559Adult Female Runner0:59:12" 05:55 " 4440:00
DENNISON J#565Adult Female Runner0:59:22" 05:56 " 4450:00
PDBY J#870Adult Male Runner0:59:23" 05:56 " 4460:00
MORWOOD Linda#622Adult Male Runner0:59:36" 05:58 " 4470:00
MORRIS P#593Adult Male Runner0:59:36" 05:58 " 4480:00
ALSAIR Angela#2483Adult Male Runner0:59:40" 05:58 " 4490:00
BENCRAFT Geoff#1135Adult Male Runner1:00:12" 06:01 " 4500:00
JOSE Mathew#2102Adult Male Runner1:00:14" 06:01 " 4510:00
SMITH L#991Adult Female Runner1:00:15" 06:02 " 4520:00
HANILY Helen#2471Adult Female Runner1:00:15" 06:02 " 4530:00
COSTAGANNA C#500Adult Female Runner1:00:17" 06:02 " 4540:00
ROSE Ted#643Adult Male Runner1:00:20" 06:02 " 4550:00
CHARALAMBOUS A#952Adult Male Runner1:00:34" 06:03 " 4560:00
ABERLINE Melinda#2117Adult Female Runner1:00:35" 06:03 " 4570:00
GREAVES Sue#2118Adult Female Runner1:00:46" 06:05 " 4580:00
KOTSOPOULOS N#535Adult Male Runner1:01:04" 06:06 " 4590:00
NEAVE R#990Adult Male Runner1:01:22" 06:08 " 4600:00
BRADLEY T#852Adult Female Runner1:01:25" 06:08 " 4610:00
WATLING R#1056Adult Male Runner1:01:27" 06:09 " 4620:00
SMITH Dean#2304Adult Male Runner1:01:35" 06:09 " 4630:00
WATKIN C#927Adult Male Runner1:01:36" 06:10 " 4640:00
COOPER M#649Adult Female Runner1:01:38" 06:10 " 4650:00
HARVEY C#518Adult Male Runner1:01:39" 06:10 " 4660:00
WHITE Barbara#2556Adult Female Runner1:01:43" 06:10 " 4670:00
NADELMAN Hadasu#2470Adult Female Runner1:01:48" 06:11 " 4680:00
TARANTO Paul#2450Adult Male Runner1:02:18" 06:14 " 4690:00
HERON S#840Adult Female Runner1:02:55" 06:17 " 4700:00
MORWOOD Natalie#1122Adult Female Runner1:03:23" 06:20 " 4710:00
HOWEY Jane#2125Junior Female Runner1:03:30" 06:21 " 4720:00
HALE R#538Adult Male Runner1:03:41" 06:22 " 4730:00
WALKER Les#2139Adult Male Runner1:03:46" 06:23 " 4740:00
BLAIR Barbara#665Adult Female Runner1:03:56" 06:24 " 4750:00
MACKLEY S#527Adult Male Runner1:04:00" 06:24 " 4760:00
OLDHAM Shelley#1040Adult Female Runner1:04:01" 06:24 " 4770:00
OLDHAM Barry#1041Adult Male Runner1:04:07" 06:25 " 4780:00
DENNISON Jan#2333Adult Male Runner1:04:09" 06:25 " 4790:00
WARD M#989Adult Male Runner1:04:09" 06:25 " 4800:00
MORWOOD Shane#1123Adult Male Runner1:04:18" 06:26 " 4810:00
SMITH Vanessa#657Adult Female Runner1:04:39" 06:28 " 4820:00
RUSSELL S#1088Adult Female Runner1:04:40" 06:28 " 4830:00
HATTON A#519Adult Male Runner1:05:19" 06:32 " 4840:00
MINEAR D#950Adult Male Runner1:05:31" 06:33 " 4850:00
MARSHALL Tim#639Junior Male Runner1:06:05" 06:37 " 4860:00
EDGE Andrew#631Junior Male Runner1:06:08" 06:37 " 4870:00
JARMAN Naomi#2307Adult Female Runner1:07:11" 06:43 " 4880:00
IEMURA Kayoko#2457Adult Female Runner1:08:33" 06:51 " 4890:00
VAN NOOTEN A#959Adult Male Runner1:09:09" 06:55 " 4900:00
CHARALAMBOUS V#955Adult Male Runner1:09:12" 06:55 " 4910:00
ABRAHAM Norma#2563Adult Male Runner1:09:14" 06:55 " 4920:00
PECHOTSCH Jody#2572Adult Female Runner1:09:21" 06:56 " 4930:00
BROWN L#574Adult Male Runner1:09:43" 06:58 " 4940:00
JOSEPH S#893Junior Male Runner1:10:05" 07:01 " 4950:00
EHRLICH Michelle#661Adult Female Runner1:10:05" 07:01 " 4960:00
LAW H#511Adult Male Runner1:10:06" 07:01 " 4970:00
LAW J#509Adult Female Runner1:10:06" 07:01 " 4980:00
NEW Gishel#674Adult Male Runner1:10:16" 07:02 " 4990:00
KELLY Peter#2587Adult Male Runner1:11:13" 07:07 " 5000:00
FOSTER B#560Adult Male Runner1:11:15" 07:07 " 5010:00
GREENFIELD Laurie#1038Adult Male Runner1:11:23" 07:08 " 5020:00
FIELD Belinda#1039Adult Female Runner1:11:23" 07:08 " 5030:00